Погода в Арсенове

Россия / Кемеровская область (Кузбасс)     54°48′12″N   86°52′39″E
темп.,
°C
ветер,
м/с
пор.,
м/с
влажн.,
%
обл.,
%
осадки,
мм/ч
давл.,
гПа
погр.,
м
16 апреля, пт
пт1601:00+2ююв38100100 0.1 1022241
04:00+2ююв38100100 0.1 1020245
07:00+2ю410100100 0.1 1019308
10:00+3ю410100100 0.0 1017264
13:00+4ю38100100 0.0 1016218
16:00+5ююз411100100 0.0 1014342
19:00+6юз41299100 0.2 1013348
22:00+4з2599100 0.8 1013121
17 апреля, сб
сб1701:00+2сз3798100 1.0 1014274
04:00−1с41096100 0.7 1017580
07:00−2с4991100 0.8 1019653
10:00−1с457863 0.0 1021835
13:00+1с3466100 0.0 10221172
16:00+1с3362100 0.0 10221220
19:000с247228 0.0 1022303
22:00−4зюз11855 0.0 102310
18 апреля, вс
вс1801:00−5ююз018733 0.0 102311
04:00−4юв1285100 0.0 1022109
07:00−2ююв2682100 0.0 1020316
10:00+1ююз4768100 0.0 10171039
13:00+3юз5862100 0.0 10151619
16:00+4ююз5970100 0.2 10131340
19:00+3ююз41070100 0.3 1011388
22:000в1299100 2.3 100786
19 апреля, пн
пн1901:000ююз2699100 5.6 1004285
04:00+1з51098100 0.9 1004927
07:00−5ссз51091100 1.3 1011817
10:00−5ссз5780100 0.2 10171070
13:00−3сз6759100 0.3 10211705
16:00−3зсз5753100 0.0 10232018
19:00−4сз4664100 0.1 10251334
22:00−7сз257945 0.0 1027249
20 апреля, вт
вт2001:00−7сз148413 0.0 1029363
04:00−8сз138299 0.0 1029356
07:00−7сз2372100 0.1 1030590
10:00−5зсз3355100 0.1 10301523
13:00−3зсз3350100 0.2 10301755
16:00−2зсз3445100 0.0 10291859
19:00−3зсз2350100 0.0 10281065
22:00−6ю11735 0.0 102810